Wind_Speed
11 12 12 12 12 13 13 12 12 12 12 12 12 12 12 12 11 11 11 10 11 10 10 9 10 10 10 10 10 10 10 10 9 9 9 9 9 10 10 10 10 10 10
12 12 12 13 12 12 13 13 13 12 13 13 13 13 13 13 13 12 12 12 11 11 11 10 10 10 10 10 10 9 10 10 10 10 10 10 10 10 10 10 10 11 10
11 12 11 12 12 13 13 13 13 14 14 14 14 14 14 14 14 14 14 14 13 13 12 12 11 11 11 11 10 10 10 10 10 11 11 11 11 11 11 11 11 12 12
12 12 12 13 13 14 15 15 14 15 15 14 14 14 14 14 14 14 14 15 14 13 13 12 12 12 12 12 12 11 11 11 12 12 12 12 12 13 12 12 12 12 13
13 13 13 14 14 14 15 15 15 15 15 15 15 15 15 15 15 15 15 15 15 15 14 13 13 14 13 13 13 13 12 12 13 13 13 13 13 13 13 13 14 14 14
14 14 15 15 15 16 16 16 16 16 16 16 16 16 16 16 16 15 15 15 15 15 14 14 14 15 14 14 14 14 14 14 14 14 14 14 14 14 14 15 15 15 16
16 16 16 17 17 17 17 17 17 17 17 17 17 18 17 17 16 16 16 16 16 15 15 15 15 15 15 15 15 15 15 15 15 15 15 15 15 16 17 17 17 17 18
18 18 17 18 18 18 19 19 18 18 18 18 18 18 18 18 18 17 17 17 17 16 16 16 16 16 16 16 16 16 16 16 16 16 17 17 17 18 18 19 19 20 20
19 19 19 19 19 19 19 19 19 19 19 19 19 19 18 18 18 19 18 18 18 18 16 16 17 17 16 16 17 17 17 17 18 18 19 19 19 19 20 20 20 20 20
20 21 21 20 20 19 19 19 20 20 19 20 19 19 19 19 19 20 19 19 19 18 17 17 17 17 17 18 18 18 18 19 19 19 20 20 20 21 21 22 22 22 22
19 21 21 21 20 20 20 20 20 20 20 19 19 19 20 20 20 20 20 19 19 19 19 18 18 18 18 19 19 19 19 19 19 20 21 21 21 22 23 23 23 23 23
19 19 20 20 20 21 21 21 21 20 20 20 20 20 20 21 21 21 21 21 21 21 20 20 20 20 20 20 19 19 19 19 20 21 22 22 22 23 24 24 25 25 25
19 19 19 20 20 21 21 22 22 21 21 21 21 21 21 22 22 22 22 21 22 22 22 21 21 21 21 21 20 20 20 20 21 22 22 23 23 24 24 25 26 26 26
20 20 19 20 20 21 21 22 22 21 21 21 21 22 22 22 23 23 22 21 21 22 22 22 22 22 22 22 21 21 21 21 22 22 23 24 24 24 25 25 26 26 26
21 21 20 20 20 21 22 22 22 22 22 22 22 22 22 22 22 22 22 21 21 22 23 23 23 23 23 22 22 22 22 23 23 23 24 24 25 25 25 26 26 26 26
21 21 21 21 21 22 22 23 22 23 23 23 23 22 22 23 23 22 22 22 22 23 24 23 23 24 23 23 23 24 24 24 24 25 25 25 25 25 25 25 26 26 26
21 21 22 21 21 22 23 23 23 23 23 23 23 23 22 23 23 23 23 23 23 24 24 24 25 25 24 24 24 24 24 25 25 25 26 26 26 26 26 26 26 26 26
23 22 21 21 22 22 23 23 23 22 22 23 23 22 23 23 23 23 23 24 24 24 24 25 25 24 25 25 25 26 26 26 26 26 27 27 27 27 27 27 27 27 28
25 23 23 23 22 22 22 23 23 23 23 23 22 22 23 23 22 23 23 24 24 25 25 26 25 25 26 26 27 27 27 27 27 28 28 29 29 29 29 29 29 29 29
26 25 25 24 24 24 23 23 23 24 23 23 23 23 23 23 23 23 23 24 24 25 26 26 27 27 27 28 28 29 29 28 29 29 29 29 30 30 30 29 29 29 30
26 26 25 25 24 24 24 24 24 23 23 23 24 24 24 24 24 24 24 24 24 25 26 27 28 28 28 29 29 30 29 29 29 29 29 29 29 30 30 30 31 31 31
25 25 25 25 24 24 24 24 24 24 23 23 23 24 23 23 24 24 24 24 25 25 26 27 28 28 28 28 29 29 29 29 29 29 29 30 30 30 30 31 31 32 32
25 25 25 24 24 24 25 24 24 25 25 24 23 24 24 23 23 23 24 24 25 26 27 28 27 28 28 28 28 29 29 29 30 30 30 31 31 31 31 32 32 33 33
25 26 25 26 25 25 25 25 25 26 25 26 25 24 24 24 24 25 25 25 26 27 27 28 28 28 28 28 28 29 30 30 31 31 31 32 32 32 33 33 34 34 34
25 26 26 26 26 25 25 25 26 25 25 26 26 26 26 25 25 25 26 26 27 27 28 29 29 29 29 29 29 29 30 30 31 32 32 33 33 33 33 33 33 33 33
26 26 26 26 26 26 25 25 26 26 26 26 27 27 27 27 27 27 27 28 28 28 28 29 29 30 30 30 30 30 30 30 31 32 32 33 33 33 32 32 32 32 32
Wind_Direction
280 280 278 279 282 283 281 282 285 287 290 290 291 293 292 292 292 289 289 289 288 284 282 284 283 282 279 275 270 263 262 261 262 264 261 258 252 250 251 256 256 256 257
279 282 280 277 279 279 278 279 282 284 285 286 289 291 291 292 291 288 287 287 285 282 281 280 280 279 278 276 271 266 263 262 263 264 263 260 259 259 256 255 255 256 259
274 277 278 280 279 275 277 280 282 283 284 284 287 289 289 291 291 290 290 287 284 282 280 278 277 278 276 275 273 272 267 266 265 265 264 261 260 260 257 254 255 258 260
273 277 279 281 281 275 274 277 279 280 282 284 286 287 286 288 290 289 288 287 285 281 277 279 277 275 274 273 272 271 268 267 265 265 264 261 262 261 257 257 257 258 259
277 278 279 279 279 276 274 275 278 280 281 282 283 284 283 284 286 287 285 284 283 283 280 279 279 276 273 271 269 270 268 268 266 264 263 262 261 261 259 257 260 261 261
282 281 280 281 281 279 275 275 276 278 278 278 279 280 281 281 283 283 283 282 282 282 281 280 279 277 273 270 269 267 268 269 267 266 263 263 263 262 261 261 262 264 266
283 281 280 279 279 278 276 276 276 276 276 275 276 276 277 279 280 280 280 280 279 280 282 280 277 275 272 271 269 267 268 269 269 267 264 264 266 265 264 265 266 266 268
280 278 278 279 278 276 274 275 276 276 275 274 274 274 275 277 277 277 278 280 279 279 279 278 275 272 271 270 268 267 268 268 268 268 266 266 269 269 267 269 269 268 269
276 278 278 276 275 273 273 274 276 277 276 275 274 274 275 276 276 278 278 278 278 277 276 275 274 272 272 272 269 268 269 269 270 270 270 270 270 269 268 269 269 268 269
277 278 278 276 274 271 271 274 276 277 277 276 274 274 275 275 274 276 277 275 275 273 271 272 271 271 273 274 272 268 270 270 271 271 271 271 271 270 269 269 270 270 270
277 277 277 276 273 271 272 274 275 276 277 276 276 275 274 273 274 275 275 276 273 270 269 270 270 271 271 272 271 271 272 273 274 274 273 272 272 271 270 270 270 270 271
275 278 278 276 276 274 273 274 276 277 277 277 277 277 276 273 273 273 272 273 272 271 270 270 271 273 272 273 272 273 273 274 275 276 275 274 273 272 271 269 270 271 272
275 276 279 278 279 276 274 274 276 277 276 276 276 277 277 275 274 272 272 272 272 272 271 272 270 272 272 273 272 273 273 273 275 277 276 275 275 274 273 271 271 272 272
276 273 275 276 277 277 276 275 276 277 276 277 277 276 275 275 273 272 272 271 271 271 272 271 271 271 270 271 271 273 275 275 276 277 278 279 279 277 276 274 274 274 273
276 274 273 276 277 278 278 277 276 276 277 277 279 277 275 273 272 272 273 271 270 270 271 271 271 270 270 270 269 272 274 275 277 278 279 279 279 278 278 277 276 275 274
275 274 274 276 276 276 277 277 276 276 277 276 277 277 276 274 272 271 271 270 268 268 269 270 270 270 270 270 271 272 274 275 276 279 279 279 279 279 279 278 278 277 275
273 273 274 275 274 275 276 276 275 276 278 278 277 276 276 275 274 271 270 269 268 268 268 269 270 270 270 270 272 273 274 276 277 278 279 278 278 277 278 279 279 279 278
277 275 275 276 274 274 275 276 276 276 277 277 278 277 275 276 275 273 272 270 269 269 269 269 271 271 271 271 272 273 274 276 278 279 279 278 278 279 279 279 279 280 281
276 276 276 274 274 274 274 274 274 274 275 276 276 275 275 275 275 273 272 271 270 269 270 270 272 272 272 272 272 273 274 276 277 278 279 279 278 279 280 280 279 279 280
276 274 274 274 273 273 274 273 273 272 273 274 273 274 275 275 275 275 273 272 271 270 270 272 273 273 273 272 272 273 274 274 276 277 277 277 278 278 279 279 279 279 279
275 274 273 273 273 273 273 273 274 271 271 273 274 275 276 276 275 276 275 275 275 274 274 273 274 274 273 273 273 273 273 274 276 277 277 278 279 279 279 279 278 278 279
275 273 272 273 272 272 273 273 274 272 271 272 274 275 276 276 276 277 276 276 276 276 276 275 277 277 275 275 274 272 272 274 276 277 278 278 278 279 280 280 279 279 280
275 273 272 270 271 272 273 273 271 271 272 273 274 276 276 277 278 278 278 278 278 277 277 276 278 279 277 276 276 275 273 273 275 277 277 277 277 278 280 282 281 280 281
277 275 275 272 271 273 271 272 271 271 272 274 274 275 277 278 278 278 278 279 278 277 277 277 278 280 278 278 277 276 275 275 276 277 277 277 277 278 280 282 282 282 282
278 275 274 273 271 272 271 271 271 270 272 273 275 277 278 277 277 277 278 279 279 279 278 277 279 280 279 279 279 279 278 277 277 277 278 279 280 280 281 282 282 282 282
278 276 273 273 272 272 272 272 272 271 271 273 274 276 278 277 277 278 279 278 279 279 280 279 280 280 280 278 278 279 279 279 278 279 280 280 280 280 280 281 282 282 282
Height
5851 5850 5850 5850 5849 5849 5848 5848 5847 5846 5845 5844 5843 5842 5841 5840 5839 5838 5837 5837 5836 5835 5834 5834 5833 5833 5833 5832 5833 5833 5832 5833 5833 5833 5834 5834 5835 5836 5836 5836 5837 5837 5838
5847 5847 5846 5846 5845 5845 5844 5844 5843 5842 5841 5841 5840 5839 5838 5837 5836 5835 5834 5833 5833 5832 5832 5831 5831 5830 5830 5830 5830 5830 5830 5830 5830 5831 5831 5831 5832 5832 5833 5834 5834 5835 5835
5844 5843 5843 5842 5842 5841 5841 5840 5839 5839 5838 5837 5836 5835 5835 5834 5833 5832 5831 5830 5829 5829 5828 5828 5827 5827 5827 5827 5827 5827 5827 5828 5828 5828 5829 5829 5829 5829 5830 5830 5831 5832 5832
5840 5839 5839 5838 5838 5837 5837 5836 5836 5835 5834 5833 5832 5832 5831 5830 5830 5828 5827 5827 5826 5825 5825 5825 5824 5824 5824 5824 5824 5824 5824 5824 5825 5825 5825 5826 5826 5827 5827 5827 5828 5828 5829
5836 5835 5835 5834 5834 5833 5833 5832 5832 5831 5830 5829 5828 5828 5827 5826 5826 5825 5824 5823 5822 5822 5821 5821 5821 5821 5820 5820 5820 5820 5820 5821 5821 5821 5822 5822 5823 5823 5824 5824 5824 5824 5825
5831 5831 5831 5830 5829 5829 5828 5828 5827 5827 5826 5825 5824 5823 5823 5822 5821 5820 5819 5819 5818 5818 5817 5817 5816 5816 5816 5816 5816 5816 5817 5817 5817 5818 5818 5818 5819 5819 5819 5820 5820 5820 5820
5826 5826 5826 5825 5824 5824 5823 5823 5822 5822 5821 5820 5820 5819 5818 5818 5817 5816 5815 5814 5814 5813 5812 5812 5812 5812 5812 5812 5812 5812 5813 5813 5813 5813 5814 5814 5814 5814 5815 5815 5816 5816 5816
5821 5821 5820 5820 5819 5818 5818 5817 5817 5817 5816 5815 5815 5814 5813 5813 5812 5811 5810 5810 5809 5809 5808 5807 5807 5807 5807 5807 5807 5808 5808 5808 5808 5809 5809 5809 5810 5809 5810 5810 5810 5810 5811
5816 5815 5814 5814 5813 5813 5812 5812 5812 5811 5810 5810 5809 5808 5808 5807 5807 5806 5805 5805 5804 5804 5803 5802 5802 5802 5803 5803 5802 5803 5803 5803 5804 5804 5804 5804 5804 5804 5804 5804 5804 5805 5805
5810 5809 5808 5808 5807 5807 5807 5806 5806 5805 5804 5804 5803 5803 5802 5802 5801 5800 5800 5799 5799 5798 5798 5798 5797 5798 5797 5797 5797 5797 5798 5798 5798 5798 5798 5798 5798 5798 5798 5798 5798 5798 5798
5804 5803 5802 5802 5801 5801 5800 5800 5799 5799 5798 5798 5797 5797 5797 5796 5796 5795 5794 5794 5793 5793 5793 5792 5792 5792 5792 5792 5792 5792 5792 5792 5792 5792 5792 5792 5791 5791 5791 5791 5791 5791 5791
5798 5797 5796 5795 5795 5795 5794 5794 5793 5793 5792 5792 5791 5791 5790 5790 5790 5789 5789 5788 5788 5787 5787 5787 5787 5787 5787 5786 5786 5786 5786 5786 5786 5786 5785 5785 5785 5784 5784 5784 5784 5784 5783
5792 5791 5790 5789 5789 5789 5789 5788 5787 5787 5786 5786 5785 5785 5784 5784 5783 5783 5782 5782 5781 5781 5781 5781 5781 5781 5781 5781 5780 5780 5780 5780 5780 5779 5779 5778 5778 5777 5777 5776 5776 5775 5775
5785 5785 5784 5784 5783 5783 5783 5782 5781 5781 5780 5779 5779 5778 5778 5777 5777 5776 5775 5775 5775 5774 5774 5775 5775 5775 5775 5774 5774 5774 5773 5773 5773 5772 5771 5771 5770 5769 5769 5768 5768 5767 5767
5779 5778 5778 5777 5777 5776 5776 5775 5775 5774 5774 5773 5772 5771 5771 5770 5770 5769 5769 5769 5769 5768 5768 5768 5768 5768 5768 5768 5767 5767 5766 5766 5765 5764 5764 5763 5762 5761 5760 5760 5759 5758 5758
5772 5772 5771 5770 5770 5769 5769 5769 5768 5767 5767 5766 5765 5764 5763 5763 5762 5762 5762 5762 5762 5762 5761 5761 5762 5761 5761 5760 5760 5760 5759 5758 5758 5757 5756 5755 5754 5753 5752 5752 5751 5750 5749
5765 5765 5764 5764 5763 5763 5762 5762 5761 5760 5759 5758 5758 5757 5756 5756 5755 5755 5755 5755 5755 5755 5755 5754 5754 5754 5753 5753 5752 5752 5751 5751 5750 5749 5748 5747 5746 5745 5744 5743 5742 5741 5740
5758 5758 5757 5757 5756 5756 5755 5754 5754 5753 5752 5751 5751 5750 5749 5749 5748 5747 5747 5747 5747 5747 5747 5746 5746 5746 5745 5745 5744 5743 5743 5742 5741 5740 5739 5739 5737 5737 5736 5735 5734 5733 5732
5751 5750 5750 5749 5748 5748 5747 5747 5747 5746 5745 5744 5743 5743 5742 5741 5740 5740 5739 5739 5739 5739 5738 5738 5737 5737 5737 5736 5736 5735 5734 5734 5733 5732 5730 5729 5728 5727 5727 5726 5725 5724 5722
5743 5742 5742 5741 5741 5740 5739 5739 5739 5738 5738 5737 5736 5735 5735 5734 5733 5732 5732 5731 5731 5730 5730 5730 5729 5729 5728 5727 5726 5726 5725 5725 5724 5723 5721 5720 5719 5718 5717 5716 5715 5714 5713
5735 5734 5734 5733 5733 5732 5732 5731 5731 5730 5730 5729 5729 5728 5727 5726 5726 5725 5724 5723 5722 5722 5722 5721 5721 5720 5719 5718 5717 5716 5715 5714 5714 5713 5712 5711 5709 5708 5707 5705 5705 5704 5703
5727 5726 5726 5726 5725 5725 5724 5723 5723 5723 5722 5722 5721 5721 5719 5718 5718 5717 5715 5715 5714 5714 5713 5712 5711 5710 5709 5708 5707 5706 5705 5705 5704 5703 5702 5701 5700 5698 5697 5696 5694 5693 5691
5719 5719 5718 5718 5717 5717 5717 5716 5715 5715 5714 5714 5713 5713 5712 5711 5710 5709 5708 5707 5706 5705 5704 5703 5702 5701 5700 5699 5698 5697 5696 5695 5694 5693 5692 5691 5690 5689 5687 5685 5684 5682 5681
5711 5711 5710 5710 5710 5709 5709 5708 5707 5707 5706 5706 5705 5705 5704 5703 5702 5701 5700 5699 5697 5696 5695 5694 5693 5692 5691 5690 5689 5688 5687 5686 5684 5683 5682 5681 5679 5678 5676 5675 5673 5671 5670
5704 5703 5702 5702 5701 5701 5700 5700 5699 5698 5698 5697 5697 5696 5695 5694 5693 5692 5691 5690 5689 5687 5686 5685 5684 5683 5682 5681 5680 5678 5677 5675 5674 5673 5672 5670 5669 5667 5666 5664 5662 5660 5658
5696 5695 5694 5694 5693 5692 5692 5691 5691 5690 5690 5689 5688 5688 5687 5686 5685 5684 5683 5681 5680 5678 5677 5676 5675 5673 5672 5671 5670 5668 5667 5665 5664 5662 5661 5659 5658 5656 5655 5653 5651 5649 5647